Regional Weather Roundup
Issued by NWS San Angelo, TX

Home | Current Version | Previous Version | Text Only | Print | Product List | Glossary On
Versions: 1 2 3 4 5 6 7 8 9 10 11 12 13 14 15 16 17 18 19 20 21 22 23 24 25 26 27 28 29 30 31 32 33 34 35 36 37 38 39 40 41 42 43 44 45 46 47 48 49 50
081
ASUS44 KSJT 071810
RWRSJT
WEST CENTRAL TEXAS REGIONAL WEATHER ROUNDUP
NATIONAL WEATHER SERVICE SAN ANGELO TX
1200 PM CST WED DEC 07 2016

NOTE: "FAIR" INDICATES FEW OR NO CLOUDS BELOW 12,000 FEET WITH NO
SIGNIFICANT WEATHER AND/OR OBSTRUCTIONS TO VISIBILITY.

TXZ049-054-064>066-071>073-076>078-098-099-113-114-127-128-139-140-
154-155-168>170-071900
...LOCATIONS ACROSS WEST CENTRAL TEXAS...

CITY           SKY/WX    TMP DP  RH WIND       PRES   REMARKS
SAN ANGELO     CLOUDY    47  42  83 S7        30.06S
ABILENE        CLOUDY    41  41 100 S7        30.07F FOG     WCI  36
DYESS AFB      NOT AVBL
JUNCTION       CLOUDY    50  45  83 SW8       30.05F
SWEETWATER     CLOUDY    42  41  96 S6        30.08S WCI  39
BROWNWOOD      CLOUDY    45  45 100 S5        30.09F FOG
COLEMAN        FOG       43  43  99 S5        30.08F VSB 3/4
SONORA         CLOUDY    46  43  87 S9        30.10S
OZONA          CLOUDY    45  43  93 S12       30.07F WCI  39
BRADY          NOT AVBL
$$

TEXAS PANHANDLE/OKLAHOMA PANHANDLE

CITY           SKY/WX    TMP DP  RH WIND       PRES   REMARKS
AMARILLO       CLOUDY    31  26  82 N8        30.08S WCI  23
BORGER         CLOUDY    29  21  72 E3        30.10F
CANADIAN       CLOUDY    34  21  59 E7        30.15F WCI  28
DALHART        SUNNY     32  10  40 N24G31    30.10R WCI  19
DUMAS          CLEAR     30  15  54 N15G24    30.09R WCI  19
GUYMON         NOT AVBL
HEREFORD       CLOUDY    36  29  77 N14G23    30.06S WCI  27
PAMPA          CLOUDY    32  23  69 SE6       30.10F WCI  27
PERRYTON       CLOUDY    33  20  58 E9        30.13R WCI  25
$$

SOUTHERN PANHANDLE/SOUTH PLAINS/ROLLING PLAINS

CITY           SKY/WX    TMP DP  RH WIND       PRES   REMARKS
LUBBOCK        CLOUDY    37  33  85 SW3       30.03S
SNYDER         CLOUDY    39  38  94 CALM      30.06S
CHILDRESS      CLOUDY    38  25  59 E7        30.13R WCI  33
SEMINOLE       CLOUDY    42  37  83 CALM      30.03S
$$

PERMIAN BASIN

CITY           SKY/WX    TMP DP  RH WIND       PRES   REMARKS
MIDLAND        CLOUDY    47  39  74 CALM      30.02S
ODESSA         CLOUDY    46  38  73 CALM      30.01F
WINK           CLOUDY    45  39  79 CALM      30.00S
$$

FAR WEST/SOUTHWEST MOUNTAINS/TRANS PECOS

CITY           SKY/WX    TMP DP  RH WIND       PRES   REMARKS
ALPINE         CLOUDY    61  32  33 W9        30.09F
DRYDEN           N/A     48  43  82 VRB5      30.02F
EL PASO        CLOUDY    56  32  40 W13       30.03F
FORT STOCKTON  CLOUDY    54  43  66 NE3       30.00S
GUADALUPE PASS CLOUDY    54  33  45 W37G45    30.01R
MARFA          CLOUDY    58  33  39 VRB3      30.07F
PECOS          CLOUDY    41  37  87 CALM      30.02S
$$

DALLAS/FORT WORTH METROPLEX

CITY           SKY/WX    TMP DP  RH WIND       PRES   REMARKS
DFW AIRPORT    CLOUDY    50  39  66 CALM      30.10F
FTW MEACHAM    CLOUDY    50  39  66 S3        30.11F
DAL-EXECUTIVE  CLOUDY    52  43  71 VRB6      30.10F
GRAND PRAIRIE  PTSUNNY   50  41  71 CALM      30.12F
ADDISON        PTSUNNY   50  41  71 W5        30.12S
MESQUITE       MOCLDY    50  43  76 CALM      30.12F
LANCASTER      CLOUDY    57  50  77 CALM      30.12F
$$

NORTH CENTRAL TEXAS

CITY           SKY/WX    TMP DP  RH WIND       PRES   REMARKS
SHRMAN/DENISON PTCLDY    50  41  71 CALM      30.12F
GAINESVILLE    CLOUDY    46  36  68 CALM      30.13F
BRIDGEPORT     CLOUDY    48  40  73 S5        30.13F
DENTON         CLOUDY    49  39  68 CALM      30.11F
WAXAHACHIE     CLOUDY    52  44  74 SE3       30.12F
GRANBURY       CLOUDY    51  42  70 SE9       30.11F
$$

WESTERN NORTH TEXAS

CITY           SKY/WX    TMP DP  RH WIND       PRES   REMARKS
WICHITA FALLS  CLOUDY    45  32  60 VRB3      30.12F
VERNON         CLOUDY    42  26  52 NE6       30.14S WCI  39
BRECKENRIDGE   CLOUDY    48  39  70 S5        30.08F
COMANCHE       CLOUDY    43  43 100 E3        30.09F
$$

CENTRAL AND SOUTH CENTRAL TEXAS

CITY           SKY/WX    TMP DP  RH WIND       PRES   REMARKS
AUSTIN/BERGSTM CLOUDY    49  47  93 E5        30.09F FOG
WACO           CLOUDY    53  44  71 SE6       30.10F
HILLSBORO      CLOUDY    52  44  74 S5        30.10F
TEMPLE         CLOUDY    53  45  74 SE8       30.10F
KILLEEN-GRAY   CLOUDY    50  45  82 SE7       30.07F
FORT HOOD      CLOUDY    50  45  81 E8        30.05F
GEORGETOWN     CLOUDY    52  43  71 E6        30.08F
LAGO VISTA     CLOUDY    53  47  79 E7        30.06F
SAN MARCOS     CLOUDY    48  46  93 E5        30.09F
NEW BRAUNFELS  CLOUDY    50  46  86 NE7       30.07F
RANDOLPH AFB   CLOUDY    50  48  93 NE5       30.07F
SAN ANTONIO    CLOUDY    52  45  77 E6        30.07F
STINSON        CLOUDY    54  46  74 N6        30.06F
PLEASANTON     NOT AVBL
LA GRANGE      CLOUDY    53  50  88 CALM      30.07F
GIDDINGS       CLOUDY    49  48  98 CALM      30.13F FOG
$$

EAST TEXAS

CITY           SKY/WX    TMP DP  RH WIND       PRES   REMARKS
PARIS          CLOUDY    46  43  87 E6        30.12F
CLARKSVILLE    NOT AVBL
TYLER          CLOUDY    54  47  77 SE7       30.09F
LONGVIEW       CLOUDY    54  49  83 E6        30.09F
PALESTINE      CLOUDY    52  48  87 S3        30.12F
NACOGDOCHES    CLOUDY    54  48  82 SW5       30.09F
$$

TEXAS HILL COUNTRY AND EDWARDS PLATEAU

CITY           SKY/WX    TMP DP  RH WIND       PRES   REMARKS
LLANO          CLOUDY   N/A N/A N/A CALM      30.11S
HORSESHOE BAY  CLOUDY    54  46  74 CALM      30.06F
KERRVILLE      CLOUDY    51  48  89 CALM      30.06F
FREDERICKSBRG  CLOUDY    47  44  89 CALM      30.06F
ROCKSPRINGS    NOT AVBL
HONDO          CLOUDY    54  47  77 SE7       30.07F
UVALDE         CLOUDY    51  46  82 CALM      30.08F
DEL RIO        CLOUDY    50  46  86 SE7       30.06F
$$

SOUTHEAST TEXAS

CITY           SKY/WX    TMP DP  RH WIND       PRES   REMARKS
COLLEGE STN    CLOUDY    54  48  80 CALM      30.09F
CALDWELL       NOT AVBL
CROCKETT       CLOUDY    54  48  82 S5        30.13F
BRENHAM        CLOUDY    57  50  77 CALM      30.09F
HUNTSVILLE     PTSUNNY   56  47  71 CALM      30.10F
CONROE         CLOUDY    56  50  80 SE3       30.09F
HOUSTON BUSH   CLOUDY    52  49  89 E5        30.10F FOG
HOUSTON HOBBY  CLOUDY    56  53  90 CALM      30.09F
PERLAND        CLOUDY    59  53  80 NE3       30.10F HAZE
WHARTON        CLOUDY    60  51  74 NE8       30.07F
$$

THE UPPER TEXAS COAST

CITY           SKY/WX    TMP DP  RH WIND       PRES   REMARKS
ORANGE         CLOUDY    57  57  98 CALM      30.11F
PORT ARTHUR    CLOUDY    60  53  77 E7        30.09F
GALVESTON      CLOUDY    61  57  87 N12       30.08F
ANGLETON       CLOUDY    61  56  83 NE7       30.06F
BAY CITY       CLOUDY    57  57  99 NE6       30.06F FOG
$$

TEXAS COASTAL BEND, RIO GRANDE PLAINS DEEP SOUTH TEXAS

CITY           SKY/WX    TMP DP  RH WIND       PRES   REMARKS
VICTORIA       CLOUDY    62  52  69 NE6       30.06F
BEEVILLE       CLOUDY    56  54  91 NE8       30.04F
ROCKPORT         N/A    N/A N/A N/A MISG      30.04F
PORT ARANSAS   CLOUDY    62  59  89 NE13      30.03F
PORT LAVACA    CLOUDY    55  55 100 CALM      30.06F FOG
CORPUS CHRISTI CLOUDY    58  56  93 NE13      30.03F FOG
KINGSVILLE NAS CLOUDY    58  56  93 N8        30.03R FOG
COTULLA        CLOUDY    56  47  71 E3        30.07F
LAREDO         CLOUDY    57  51  80 CALM      30.05F
BROWNSVILLE    PTSUNNY   81  68  64 S15       29.98F
PORT ISABEL    PTSUNNY   78  67  68 SE9       29.97F
HEBBRONVILLE   CLOUDY    58  53  83 E3        30.04F
MCALLEN        CLOUDY    67  59  75 NW7       30.01F
WESLACO        CLOUDY    69  62  78 NW6       29.99F
FALFURRIAS     CLOUDY    61  55  78 N3        30.03F
EDINBURG       CLOUDY    70  59  68 N6        30.01F
$$




USA.gov is the U.S. government's official web portal to all federal, state and local government web resources and services.